| time (UTC) | temp C | wind direction | speed KPH | gust KPH | rain 1hr cm | rain 24hr cm | rain mn cm | humidity % | barometer mb |
| 20260504050121 | 15 | 185 | 6.4 | 12.9 | 0.00 | 0.18 | 0.00 | 56 | 1004.1 |
| 20260504045618 | 15 | 265 | 3.2 | 11.3 | 0.00 | 0.18 | 0.18 | 56 | 1004.1 |
| 20260504045117 | 15 | 282 | 4.8 | 14.5 | 0.00 | 0.18 | 0.18 | 55 | 1004.0 |
| 20260504044618 | 15 | 198 | 4.8 | 14.5 | 0.00 | 0.18 | 0.18 | 55 | 1004.0 |
| 20260504044120 | 15 | 255 | 3.2 | 14.5 | 0.00 | 0.18 | 0.18 | 55 | 1004.0 |
| 20260504043615 | 15 | 201 | 4.8 | 11.3 | 0.00 | 0.18 | 0.18 | 54 | 1004.0 |
| 20260504043116 | 15 | 208 | 4.8 | 12.9 | 0.00 | 0.18 | 0.18 | 54 | 1004.1 |
| 20260504042615 | 16 | 213 | 3.2 | 12.9 | 0.00 | 0.18 | 0.18 | 54 | 1004.1 |
| 20260504042114 | 16 | 227 | 3.2 | 12.9 | 0.00 | 0.18 | 0.18 | 53 | 1004.1 |
| 20260504041614 | 16 | 232 | 3.2 | 9.7 | 0.00 | 0.18 | 0.18 | 53 | 1004.1 |
| 20260504041115 | 16 | 189 | 3.2 | 9.7 | 0.00 | 0.18 | 0.18 | 52 | 1004.1 |
| 20260504040611 | 16 | 285 | 3.2 | 9.7 | 0.00 | 0.18 | 0.18 | 52 | 1004.2 |
| 20260504040111 | 16 | 264 | 3.2 | 8.0 | 0.00 | 0.18 | 0.18 | 52 | 1004.3 |
| 20260504035607 | 16 | 239 | 3.2 | 8.0 | 0.00 | 0.18 | 0.18 | 51 | 1004.3 |
| 20260504035105 | 16 | 250 | 6.4 | 14.5 | 0.00 | 0.18 | 0.18 | 51 | 1004.3 |
| 20260504034830 | 16 | 247 | 0.0 | 14.5 | 0.00 | 0.18 | 0.18 | 51 | 1004.4 |
| 20260504034333 | 16 | 241 | 8.0 | 14.5 | 0.00 | 0.18 | 0.18 | 50 | 1004.4 |
| 20260504033826 | 16 | 113 | 0.0 | 14.5 | 0.00 | 0.18 | 0.18 | 50 | 1004.5 |
| 20260504033058 | 16 | 227 | 6.4 | 11.3 | 0.00 | 0.18 | 0.18 | 49 | 1004.6 |
| 20260504032557 | 16 | 170 | 1.6 | 14.5 | 0.00 | 0.18 | 0.18 | 49 | 1004.6 |
| 20260504032057 | 16 | 177 | 1.6 | 14.5 | 0.00 | 0.18 | 0.18 | 49 | 1004.6 |
| 20260504031556 | 16 | 289 | 6.4 | 12.9 | 0.03 | 0.18 | 0.18 | 49 | 1004.7 |
| 20260504031056 | 17 | 118 | 0.0 | 12.9 | 0.03 | 0.18 | 0.18 | 48 | 1004.7 |
| 20260504030556 | 17 | 275 | 3.2 | 12.9 | 0.03 | 0.18 | 0.18 | 48 | 1004.7 |
| 20260504030325 | 17 | 227 | 0.0 | 14.5 | 0.03 | 0.18 | 0.18 | 48 | 1004.7 |
| 20260504025826 | 17 | 225 | 4.8 | 14.5 | 0.03 | 0.18 | 0.18 | 47 | 1004.9 |
| 20260504025054 | 17 | 268 | 3.2 | 14.5 | 0.03 | 0.18 | 0.18 | 47 | 1004.7 |
| 20260504024553 | 17 | 251 | 4.8 | 12.9 | 0.03 | 0.18 | 0.18 | 47 | 1004.7 |
| 20260504024053 | 17 | 253 | 4.8 | 11.3 | 0.03 | 0.18 | 0.18 | 47 | 1004.7 |
| 20260504023549 | 17 | 198 | 4.8 | 14.5 | 0.03 | 0.18 | 0.18 | 46 | 1004.6 |
| 20260504023049 | 17 | 251 | 6.4 | 14.5 | 0.03 | 0.18 | 0.18 | 46 | 1004.7 |
| 20260504022548 | 17 | 219 | 0.0 | 12.9 | 0.03 | 0.18 | 0.18 | 46 | 1004.7 |
| 20260504022307 | 17 | 251 | 3.2 | 9.7 | 0.03 | 0.18 | 0.18 | 45 | 1004.7 |
| 20260504021543 | 17 | 284 | 1.6 | 11.3 | 0.00 | 0.15 | 0.15 | 45 | 1004.7 |
| 20260504021519 | 17 | 187 | 4.8 | 11.3 | 0.00 | 0.15 | 0.15 | 45 | 1004.7 |
| 20260504020527 | 17 | 192 | 1.6 | 12.9 | 0.00 | 0.15 | 0.15 | 44 | 1004.6 |
| 20260504020029 | 18 | 213 | 4.8 | 12.9 | 0.00 | 0.15 | 0.15 | 44 | 1004.6 |
| 20260504015512 | 18 | 258 | 0.0 | 8.0 | 0.00 | 0.15 | 0.15 | 44 | 1004.5 |
| 20260504015006 | 18 | 213 | 0.0 | 14.5 | 0.00 | 0.15 | 0.15 | 43 | 1004.2 |
| 20260504015001 | 18 | 229 | 3.2 | 12.9 | 0.00 | 0.15 | 0.15 | 43 | 1004.3 |
| 20260504013941 | 18 | 217 | 4.8 | 14.5 | 0.00 | 0.15 | 0.15 | 42 | 1004.2 |
| 20260504013708 | 18 | 267 | 0.0 | 12.9 | 0.00 | 0.15 | 0.15 | 42 | 1004.1 |
| 20260504012936 | 18 | 243 | 0.0 | 12.9 | 0.00 | 0.15 | 0.15 | 41 | 1004.0 |
| 20260504012427 | 18 | 194 | 1.6 | 12.9 | 0.00 | 0.15 | 0.15 | 41 | 1004.0 |
| 20260504011927 | 18 | 225 | 3.2 | 14.5 | 0.00 | 0.15 | 0.15 | 40 | 1004.0 |
| 20260504011427 | 18 | 255 | 1.6 | 14.5 | 0.00 | 0.15 | 0.15 | 40 | 1003.9 |
| 20260504010921 | 19 | 285 | 3.2 | 14.5 | 0.00 | 0.15 | 0.15 | 40 | 1003.9 |
| 20260504010423 | 19 | 241 | 3.2 | 16.1 | 0.00 | 0.15 | 0.15 | 39 | 1004.0 |
| 20260504005921 | 19 | 195 | 6.4 | 16.1 | 0.00 | 0.15 | 0.15 | 39 | 1004.0 |
| 20260504005410 | 19 | 267 | 1.6 | 14.5 | 0.00 | 0.15 | 0.15 | 39 | 1004.0 |
| 20260504004910 | 19 | 262 | 0.0 | 14.5 | 0.00 | 0.15 | 0.15 | 38 | 1004.1 |
| 20260504004402 | 19 | 250 | 0.0 | 16.1 | 0.00 | 0.15 | 0.15 | 38 | 1004.1 |
| 20260504003901 | 19 | 267 | 6.4 | 16.1 | 0.00 | 0.15 | 0.15 | 38 | 1004.0 |
| 20260504003359 | 20 | 226 | 4.8 | 14.5 | 0.00 | 0.15 | 0.15 | 37 | 1004.0 |
| 20260504002857 | 20 | 319 | 4.8 | 16.1 | 0.00 | 0.15 | 0.15 | 37 | 1004.0 |
| 20260504002350 | 20 | 225 | 8.0 | 22.5 | 0.00 | 0.15 | 0.15 | 36 | 1003.9 |
| 20260504001850 | 20 | 293 | 0.0 | 22.5 | 0.00 | 0.15 | 0.15 | 36 | 1003.9 |
| 20260504001349 | 20 | 223 | 3.2 | 20.9 | 0.00 | 0.15 | 0.15 | 35 | 1004.0 |
| 20260504000852 | 20 | 258 | 8.0 | 16.1 | 0.00 | 0.15 | 0.15 | 35 | 1004.0 |
| 20260504000610 | 20 | 264 | 1.6 | 27.4 | 0.00 | 0.15 | 0.15 | 35 | 1003.9 |
| 20260503235849 | 20 | 215 | 3.2 | 27.4 | 0.00 | 0.15 | 0.15 | 35 | 1003.8 |
| 20260503235607 | 20 | 279 | 3.2 | 20.9 | 0.00 | 0.15 | 0.15 | 35 | 1003.8 |
| 20260503234847 | 20 | 300 | 0.0 | 24.1 | 0.00 | 0.15 | 0.15 | 34 | 1003.9 |
| 20260503234339 | 20 | 213 | 8.0 | 24.1 | 0.00 | 0.15 | 0.15 | 34 | 1003.9 |
| 20260503234103 | 20 | 272 | 4.8 | 24.1 | 0.00 | 0.15 | 0.15 | 34 | 1003.9 |
| 20260503233337 | 20 | 254 | 8.0 | 22.5 | 0.00 | 0.15 | 0.15 | 34 | 1003.9 |
| 20260503232839 | 20 | 243 | 6.4 | 27.4 | 0.00 | 0.15 | 0.15 | 34 | 1004.0 |
| 20260503232333 | 20 | 261 | 8.0 | 27.4 | 0.00 | 0.15 | 0.15 | 34 | 1004.0 |
| 20260503231825 | 20 | 251 | 3.2 | 22.5 | 0.00 | 0.15 | 0.15 | 33 | 1004.1 |
| 20260503231550 | 20 | 219 | 1.6 | 19.3 | 0.00 | 0.15 | 0.15 | 34 | 1004.1 |
| 20260503231040 | 20 | 275 | 1.6 | 24.1 | 0.00 | 0.15 | 0.15 | 34 | 1004.1 |
| 20260503230552 | 19 | 291 | 14.5 | 24.1 | 0.00 | 0.15 | 0.15 | 33 | 1004.3 |
| 20260503225818 | 20 | 243 | 8.0 | 22.5 | 0.00 | 0.15 | 0.15 | 33 | 1004.3 |
| 20260503225319 | 20 | 195 | 1.6 | 27.4 | 0.00 | 0.15 | 0.15 | 34 | 1004.3 |
| 20260503224820 | 19 | 126 | 14.5 | 27.4 | 0.00 | 0.15 | 0.15 | 33 | 1004.6 |
| 20260503224814 | 19 | 289 | 12.9 | 27.4 | 0.00 | 0.15 | 0.15 | 34 | 1004.4 |
| 20260503223811 | 20 | 219 | 8.0 | 25.7 | 0.00 | 0.15 | 0.15 | 33 | 1004.6 |
| 20260503223315 | 19 | 196 | 8.0 | 25.7 | 0.00 | 0.15 | 0.15 | 34 | 1004.5 |
| 20260503222811 | 19 | 250 | 12.9 | 22.5 | 0.00 | 0.15 | 0.15 | 33 | 1004.7 |
| 20260503222309 | 19 | 241 | 14.5 | 29.0 | 0.00 | 0.15 | 0.15 | 33 | 1004.9 |
| 20260503221808 | 19 | 244 | 12.9 | 25.7 | 0.00 | 0.20 | 0.15 | 33 | 1005.0 |
| 20260503221308 | 19 | 178 | 16.1 | 37.0 | 0.00 | 0.20 | 0.15 | 33 | 1005.1 |
| 20260503220808 | 19 | 244 | 6.4 | 37.0 | 0.00 | 0.20 | 0.15 | 33 | 1005.1 |
| 20260503220306 | 19 | 229 | 11.3 | 32.2 | 0.00 | 0.20 | 0.15 | 33 | 1005.2 |
| 20260503215807 | 19 | 261 | 14.5 | 37.0 | 0.00 | 0.20 | 0.15 | 32 | 1005.2 |
| 20260503215306 | 19 | 320 | 14.5 | 37.0 | 0.00 | 0.20 | 0.15 | 33 | 1005.2 |
| 20260503214804 | 19 | 277 | 19.3 | 37.0 | 0.00 | 0.20 | 0.15 | 32 | 1005.2 |
| 20260503214304 | 19 | 291 | 9.7 | 32.2 | 0.00 | 0.20 | 0.15 | 32 | 1005.2 |
| 20260503213746 | 18 | 233 | 12.9 | 32.2 | 0.00 | 0.20 | 0.15 | 33 | 1005.3 |
| 20260503213503 | 18 | 244 | 16.1 | 35.4 | 0.00 | 0.20 | 0.15 | 32 | 1005.4 |
| 20260503212744 | 18 | 217 | 11.3 | 35.4 | 0.00 | 0.20 | 0.15 | 32 | 1005.5 |
| 20260503212242 | 18 | 298 | 14.5 | 30.6 | 0.00 | 0.20 | 0.15 | 32 | 1005.5 |
| 20260503211742 | 18 | 288 | 12.9 | 30.6 | 0.00 | 0.20 | 0.15 | 33 | 1005.5 |
| 20260503211241 | 18 | 316 | 11.3 | 29.0 | 0.00 | 0.20 | 0.15 | 33 | 1005.7 |
| 20260503210742 | 18 | 244 | 9.7 | 29.0 | 0.00 | 0.20 | 0.15 | 34 | 1005.7 |
| 20260503210241 | 18 | 232 | 9.7 | 29.0 | 0.00 | 0.20 | 0.15 | 33 | 1005.8 |
| 20260503205744 | 18 | 216 | 9.7 | 29.0 | 0.00 | 0.20 | 0.15 | 32 | 1005.8 |
| 20260503205240 | 18 | 303 | 14.5 | 29.0 | 0.00 | 0.20 | 0.15 | 32 | 1006.0 |
| 20260503204738 | 18 | 188 | 11.3 | 30.6 | 0.00 | 0.20 | 0.15 | 32 | 1006.1 |
| 20260503204237 | 18 | 229 | 8.0 | 33.8 | 0.00 | 0.20 | 0.15 | 33 | 1006.2 |
| 20260503203953 | 18 | 222 | 9.7 | 38.6 | 0.00 | 0.20 | 0.15 | 33 | 1006.3 |
| 20260503203237 | 18 | 253 | 16.1 | 38.6 | 0.00 | 0.20 | 0.15 | 33 | 1006.5 |
| 20260503202736 | 18 | 201 | 9.7 | 37.0 | 0.00 | 0.20 | 0.15 | 35 | 1006.4 |
| 20260503202234 | 18 | 257 | 6.4 | 38.6 | 0.00 | 0.20 | 0.15 | 35 | 1006.5 |
| 20260503201734 | 17 | 212 | 14.5 | 38.6 | 0.05 | 0.20 | 0.15 | 34 | 1006.8 |
| 20260503201233 | 17 | 219 | 14.5 | 49.9 | 0.05 | 0.20 | 0.15 | 35 | 1006.9 |
| 20260503200733 | 17 | 230 | 16.1 | 49.9 | 0.05 | 0.20 | 0.15 | 35 | 1006.8 |
| 20260503200450 | 17 | 267 | 14.5 | 49.9 | 0.05 | 0.20 | 0.15 | 35 | 1007.0 |
| 20260503195732 | 17 | 198 | 17.7 | 40.2 | 0.05 | 0.20 | 0.15 | 40 | 1007.0 |
| 20260503195232 | 16 | 195 | 11.3 | 40.2 | 0.05 | 0.20 | 0.15 | 42 | 1007.0 |
| 20260503194733 | 16 | 248 | 9.7 | 40.2 | 0.05 | 0.20 | 0.15 | 43 | 1007.1 |
| 20260503194452 | 16 | 168 | 17.7 | 33.8 | 0.05 | 0.20 | 0.15 | 42 | 1007.1 |
| 20260503193951 | 16 | 284 | 8.0 | 33.8 | 0.05 | 0.20 | 0.15 | 44 | 1007.2 |
| 20260503193227 | 16 | 251 | 9.7 | 33.8 | 0.05 | 0.20 | 0.15 | 43 | 1007.4 |
| 20260503192728 | 15 | 195 | 12.9 | 33.8 | 0.05 | 0.20 | 0.15 | 43 | 1007.4 |
| 20260503192226 | 15 | 195 | 16.1 | 33.8 | 0.05 | 0.20 | 0.15 | 42 | 1007.5 |
| 20260503191727 | 15 | 240 | 11.3 | 37.0 | 0.00 | 0.15 | 0.10 | 43 | 1007.6 |
| 20260503191226 | 15 | 210 | 11.3 | 37.0 | 0.00 | 0.15 | 0.10 | 43 | 1007.8 |
| 20260503190724 | 14 | 261 | 17.7 | 33.8 | 0.00 | 0.15 | 0.10 | 43 | 1007.8 |
| 20260503190223 | 15 | 185 | 12.9 | 32.2 | 0.00 | 0.15 | 0.10 | 46 | 1007.9 |
| 20260503185724 | 15 | 132 | 9.7 | 30.6 | 0.00 | 0.15 | 0.10 | 45 | 1008.0 |
| 20260503185222 | 14 | 215 | 12.9 | 30.6 | 0.00 | 0.15 | 0.10 | 47 | 1008.0 |
| 20260503184945 | 14 | 227 | 17.7 | 33.8 | 0.00 | 0.15 | 0.10 | 48 | 1008.2 |
| 20260503184447 | 13 | 175 | 14.5 | 33.8 | 0.00 | 0.15 | 0.10 | 49 | 1008.2 |
| 20260503183722 | 13 | 213 | 14.5 | 35.4 | 0.00 | 0.15 | 0.10 | 50 | 1008.4 |
| 20260503183222 | 13 | 210 | 14.5 | 35.4 | 0.00 | 0.15 | 0.10 | 51 | 1008.4 |
| 20260503182720 | 13 | 208 | 17.7 | 27.4 | 0.00 | 0.15 | 0.10 | 51 | 1008.5 |
| 20260503182219 | 13 | 175 | 12.9 | 33.8 | 0.00 | 0.15 | 0.10 | 52 | 1008.6 |
| 20260503181717 | 12 | 129 | 16.1 | 33.8 | 0.00 | 0.15 | 0.10 | 52 | 1008.8 |
| 20260503181218 | 13 | 234 | 17.7 | 30.6 | 0.00 | 0.15 | 0.10 | 52 | 1009.2 |
| 20260503180717 | 13 | 225 | 9.7 | 29.0 | 0.00 | 0.15 | 0.10 | 52 | 1009.6 |
| 20260503180215 | 13 | 149 | 9.7 | 33.8 | 0.00 | 0.15 | 0.10 | 53 | 1009.8 |
| 20260503175715 | 13 | 271 | 9.7 | 37.0 | 0.00 | 0.15 | 0.10 | 53 | 1009.9 |
| 20260503175214 | 13 | 295 | 9.7 | 37.0 | 0.00 | 0.15 | 0.10 | 54 | 1010.1 |
| 20260503174714 | 12 | 253 | 17.7 | 37.0 | 0.00 | 0.15 | 0.10 | 53 | 1010.4 |
| 20260503174214 | 12 | 180 | 12.9 | 32.2 | 0.00 | 0.15 | 0.10 | 55 | 1010.4 |
| 20260503173712 | 12 | 244 | 11.3 | 29.0 | 0.00 | 0.15 | 0.10 | 56 | 1010.4 |
| 20260503173431 | 12 | 187 | 14.5 | 25.7 | 0.00 | 0.15 | 0.10 | 58 | 1010.6 |
| 20260503172711 | 12 | 257 | 9.7 | 29.0 | 0.00 | 0.15 | 0.10 | 58 | 1010.9 |
| 20260503172213 | 12 | 175 | 6.4 | 29.0 | 0.00 | 0.15 | 0.10 | 59 | 1011.1 |
| 20260503171712 | 12 | 191 | 11.3 | 29.0 | 0.00 | 0.15 | 0.10 | 60 | 1011.1 |
| 20260503171211 | 11 | 226 | 11.3 | 27.4 | 0.00 | 0.15 | 0.10 | 62 | 1011.2 |
| 20260503170707 | 11 | 244 | 9.7 | 27.4 | 0.00 | 0.15 | 0.10 | 63 | 1011.2 |
| 20260503170207 | 11 | 202 | 8.0 | 27.4 | 0.00 | 0.15 | 0.10 | 64 | 1011.3 |
| 20260503150641 | 12 | 271 | 12.9 | 25.7 | 0.00 | 0.15 | 0.10 | 49 | 1011.9 |
| 20260503150134 | 12 | 241 | 8.0 | 27.4 | 0.00 | 0.15 | 0.10 | 49 | 1011.9 |
| 20260503140121 | 12 | 265 | 14.5 | 27.4 | 0.00 | 0.15 | 0.10 | 47 | 1012.8 |
| 20260503131107 | 11 | 274 | 3.2 | 27.4 | 0.05 | 0.15 | 0.10 | 48 | 1013.0 |
| 20260503130828 | 11 | 246 | 11.3 | 27.4 | 0.05 | 0.15 | 0.10 | 47 | 1013.0 |
| 20260503130107 | 11 | 233 | 8.0 | 24.1 | 0.05 | 0.15 | 0.10 | 47 | 1013.1 |
| 20260503110437 | 9 | 277 | 8.0 | 20.9 | 0.00 | 0.10 | 0.05 | 51 | 1012.8 |
| 20260503110153 | 9 | 258 | 9.7 | 20.9 | 0.00 | 0.10 | 0.05 | 51 | 1012.7 |
| 20260503090324 | 8 | 240 | 1.6 | 11.3 | 0.00 | 0.10 | 0.05 | 49 | 1013.2 |
| 20260503081529 | 8 | 258 | 1.6 | 11.3 | 0.00 | 0.15 | 0.05 | 48 | 1013.3 |
| 20260503080807 | 8 | 265 | 0.0 | 11.3 | 0.00 | 0.15 | 0.05 | 48 | 1013.4 |
| 20260503080307 | 8 | 289 | 4.8 | 11.3 | 0.00 | 0.15 | 0.05 | 48 | 1013.3 |
| 20260503072739 | 9 | 243 | 1.6 | 11.3 | 0.00 | 0.15 | 0.05 | 47 | 1013.5 |
| 20260503072239 | 9 | 220 | 1.6 | 11.3 | 0.00 | 0.15 | 0.05 | 47 | 1013.5 |
| 20260503072003 | 9 | 232 | 1.6 | 8.0 | 0.00 | 0.15 | 0.05 | 47 | 1013.5 |
| 20260503071231 | 9 | 251 | 0.0 | 8.0 | 0.00 | 0.15 | 0.05 | 47 | 1013.5 |
| 20260503070726 | 9 | 254 | 1.6 | 14.5 | 0.00 | 0.15 | 0.05 | 47 | 1013.5 |
| 20260503070211 | 9 | 303 | 0.0 | 14.5 | 0.00 | 0.15 | 0.05 | 47 | 1013.6 |
| 20260503060331 | 9 | 223 | 1.6 | 11.3 | 0.05 | 0.15 | 0.05 | 46 | 1014.0 |
| 20260503060213 | 9 | 247 | 0.0 | 11.3 | 0.05 | 0.15 | 0.05 | 46 | 1014.0 |
| 20260503055110 | 9 | 217 | 3.2 | 14.5 | 0.05 | 0.15 | 0.05 | 46 | 1014.1 |
| 20260503054613 | 9 | 208 | 6.4 | 14.5 | 0.05 | 0.15 | 0.05 | 46 | 1014.1 |
| 20260503054106 | 9 | 122 | 6.4 | 14.5 | 0.05 | 0.15 | 0.05 | 46 | 1014.3 |
| 20260503053608 | 10 | 247 | 3.2 | 14.5 | 0.05 | 0.15 | 0.05 | 46 | 1014.3 |
| 20260503053042 | 10 | 237 | 0.0 | 14.5 | 0.05 | 0.15 | 0.05 | 46 | 1014.3 |
| 20260503052543 | 10 | 219 | 1.6 | 12.9 | 0.05 | 0.15 | 0.05 | 46 | 1014.4 |